Home   Weather   Thane   Past weeks

Flag for India Past Weather in Thane, Maharashtra, India — Yesterday and Last 2 Weeks

Now
82 °F

Passing clouds.


Feels Like: 89 °F
Forecast: 78 / 87 °F
Wind: 6 mph from Northwest

Location: Mumbai / Santacruz

Current Time: Sep 26, 2016 at 7:34:52 PM

Latest Report: Sep 26, 2016 at 7:00 PM


Visibility: 2 mi

Pressure: 29.77 "Hg

Humidity: 79%

Dew Point: 75 °F

Location of ThaneLocation

Past Weather in Thane — Graph

°F

Thane Temperature Yesterday

Maximum temperature yesterday: 84 °F (at 2:00 PM)
Minimum temperature yesterday: 77 °F (at 10:00 AM)
Average temperature yesterday: 81 °F

High & Low Weather Summary for the Past Weeks

 TemperatureHumidityPressure
High88 °F (Sep 12, 2:00 PM)100% (Sep 15, 12:00 PM)29.83 "Hg (Sep 15, 12:00 PM)
Low75 °F (Sep 20, 4:00 PM)62% (Sep 12, 2:30 PM)29.59 "Hg (Sep 17, 2:30 PM)
Average81 °F87%29.73 "Hg
* Reported Sep 11 6:30 PM — Sep 26 6:30 PM, Thane, Weather by CustomWeather, © 2016

Note: Actual official high and low records may vary slightly from our data, if they occured in-between our weather recording intervals... More about our weather records

Advertising

Thane Weather History for the Previous 24 Hours

Scroll right to see more
 ConditionsComfort  
Time TempWeatherWind HumidityBarometerVisibility
6:30 PM
Mon, Sep 26
84 °FHaze.9 mph74%29.77 "Hg3 mi
6:00 PM84 °FScattered clouds.9 mph74%29.74 "Hg3 mi
5:30 PM86 °FScattered clouds.10 mph70%29.74 "Hg3 mi
5:00 PM86 °FScattered clouds.9 mph70%29.74 "Hg3 mi
4:30 PM86 °FScattered clouds.9 mph70%29.74 "Hg3 mi
4:00 PM86 °FScattered clouds.13 mph70%29.74 "Hg3 mi
3:30 PM88 °FScattered clouds.13 mph66%29.74 "Hg3 mi
3:00 PM88 °FScattered clouds.10 mph66%29.74 "Hg3 mi
2:30 PM88 °FScattered clouds.14 mph66%29.77 "Hg3 mi
2:00 PM88 °FScattered clouds.14 mph66%29.77 "Hg3 mi
1:30 PM88 °FScattered clouds.10 mph66%29.77 "Hg3 mi
1:00 PM86 °FScattered clouds.12 mph70%29.77 "Hg3 mi
12:30 PM86 °FScattered clouds.10 mph79%29.80 "Hg3 mi
12:00 PM86 °FScattered clouds.9 mph79%29.80 "Hg4 mi
11:30 AM86 °FScattered clouds.12 mph70%29.83 "Hg4 mi
11:00 AM86 °FScattered clouds.9 mph70%29.83 "Hg3 mi
10:30 AM84 °FScattered clouds.13 mph74%29.83 "Hg3 mi
10:00 AM84 °FScattered clouds.14 mph74%29.83 "Hg2 mi
9:30 AM84 °FBroken clouds.14 mph79%29.83 "Hg2 mi
9:00 AM82 °FBroken clouds.6 mph84%29.83 "Hg2 mi
8:30 AM82 °FBroken clouds.7 mph84%29.83 "Hg2 mi
8:00 AM82 °FBroken clouds.6 mph84%29.80 "Hg1 mi
7:30 AM81 °FBroken clouds.6 mph89%29.80 "Hg1 mi
7:00 AM82 °FBroken clouds.5 mph84%29.77 "Hg1 mi
6:30 AM82 °FPartly cloudy.3 mph84%29.77 "Hg1 mi
6:00 AM82 °FPartly cloudy.5 mph84%29.74 "Hg1 mi
5:30 AM81 °FPartly cloudy.6 mph89%29.74 "Hg1 mi
5:00 AM81 °FPartly cloudy.6 mph89%29.74 "Hg1 mi
3:30 AM81 °FPassing clouds.3 mph89%29.74 "Hg1 mi
3:00 AM81 °FPassing clouds.5 mph89%29.74 "Hg1 mi
2:30 AM81 °FPartly cloudy.3 mph89%29.74 "Hg1 mi
2:00 AM82 °FPartly cloudy.6 mph84%29.74 "Hg1 mi
1:30 AM82 °FPartly cloudy.8 mph84%29.74 "Hg1 mi
1:00 AM82 °FPartly cloudy.8 mph84%29.74 "Hg2 mi
12:30 AM82 °FPassing clouds.6 mph89%29.74 "Hg2 mi
12:00 AM82 °FPassing clouds.5 mph89%29.77 "Hg2 mi
11:30 PM
Sun, Sep 25
82 °FPassing clouds.5 mph84%29.77 "Hg2 mi
11:00 PM82 °FPartly cloudy.3 mph89%29.77 "Hg2 mi
10:30 PM82 °FPartly cloudy.5 mph84%29.77 "Hg2 mi
10:00 PM82 °FPartly cloudy.6 mph84%29.77 "Hg2 mi
9:30 PM82 °FPartly cloudy.5 mph84%29.77 "Hg2 mi
9:00 PM82 °FPartly cloudy.6 mph84%29.77 "Hg2 mi
8:30 PM82 °FPassing clouds.6 mph84%29.74 "Hg2 mi
8:00 PM82 °FPartly cloudy.7 mph84%29.74 "Hg2 mi
7:30 PM84 °FPartly cloudy.7 mph79%29.74 "Hg2 mi
7:00 PM82 °FBroken clouds.6 mph84%29.71 "Hg2 mi
Weather by CustomWeather, © 2016

See weather overviewHow to use our weather pages